Theta_e
276 276 276 276 276 276 276 275 275 275 276 276 276 276 275 275 275 275 275 275 275 275 275 275 275 275 275 275 275 276 276 276 276 277 277 277 277 277 278 278 278 278 278 278 278 278 278 278 278 278 278 278 278 278 278 278 278 278 278 278 278 278 278 278 278 278 278 278 277 277 277 277 277 276 276 276 276 276 276 275 275 275 275 275 275
275 275 275 275 275 275 275 275 275 275 275 275 275 275 274 274 274 274 274 274 273 273 273 273 273 273 273 274 274 274 274 275 275 275 275 276 276 276 276 277 277 277 277 277 277 277 278 278 278 277 277 277 277 277 277 278 278 278 278 278 278 278 278 278 277 277 277 277 277 277 276 276 276 276 276 276 276 276 275 275 275 275 275 274 274
274 274 275 274 274 275 275 275 275 275 274 274 274 273 273 273 272 272 272 272 272 272 272 272 272 272 272 272 273 273 273 273 273 274 274 274 275 275 275 275 276 276 276 276 276 277 277 277 277 277 277 277 277 277 277 277 277 277 277 277 277 277 277 277 277 276 276 276 276 276 276 276 276 276 276 275 275 275 275 275 274 274 274 274 274
274 274 274 274 274 274 274 274 273 273 273 273 272 272 272 271 271 271 271 270 270 270 270 270 270 270 271 271 271 271 271 272 272 272 272 273 273 273 274 274 274 275 275 275 275 275 276 276 276 276 276 276 276 276 276 276 277 277 277 277 277 277 276 276 276 276 276 275 275 275 275 275 275 275 275 274 274 274 274 274 274 274 274 274 274
273 273 273 274 274 273 273 273 272 272 272 272 271 271 270 270 269 269 269 269 269 269 268 268 268 269 269 269 269 270 270 270 270 271 271 271 272 272 272 273 273 273 273 274 274 274 274 275 275 275 275 275 276 276 276 276 276 276 276 276 276 276 276 275 275 275 275 274 274 274 274 274 273 273 273 273 274 274 274 274 274 273 273 273 273
272 273 273 273 273 272 272 271 271 270 270 270 270 269 269 268 268 268 267 267 267 267 267 267 267 267 268 268 268 268 269 269 269 269 270 270 270 271 271 271 271 272 272 273 273 273 274 274 274 274 274 275 275 275 275 275 275 275 275 275 275 275 275 275 274 274 274 273 273 273 273 273 273 273 273 273 273 273 273 273 273 273 273 273 273
271 271 272 271 271 271 270 270 269 269 269 269 269 268 267 267 267 266 266 266 266 266 266 265 266 266 266 266 266 267 267 267 268 268 268 269 269 269 269 270 270 271 271 272 272 273 273 273 273 273 274 274 274 274 274 275 275 275 275 275 274 274 274 273 273 273 272 272 272 272 272 272 272 272 272 272 272 272 273 273 273 273 273 273 273
270 270 270 270 270 269 269 268 268 267 268 268 268 267 266 266 265 265 265 265 265 265 264 264 265 265 265 265 265 265 266 266 266 267 267 267 267 268 268 269 270 271 271 272 272 272 273 273 273 273 273 273 273 273 274 274 274 274 274 274 274 273 272 272 272 271 271 271 271 271 272 272 272 272 272 272 272 272 272 273 273 273 272 272 273
269 269 269 269 269 268 268 267 267 266 267 267 267 266 265 265 265 264 264 264 264 264 263 263 263 263 263 264 264 264 264 264 265 265 265 266 267 267 268 269 270 271 271 271 271 272 272 272 272 272 272 272 273 273 273 274 274 274 273 273 273 272 271 271 271 271 271 271 271 271 271 271 271 272 272 272 272 272 272 272 272 272 272 272 272
269 268 269 269 268 267 267 266 266 266 266 266 266 265 265 264 264 264 263 263 263 263 263 263 262 262 263 263 263 263 263 263 263 264 265 266 267 268 269 269 270 270 270 271 271 271 271 271 272 272 272 272 272 272 272 273 273 273 273 273 272 271 270 270 271 271 271 271 271 271 271 271 271 271 271 271 271 271 271 271 271 271 271 272 272
268 268 268 268 267 267 266 266 265 265 265 265 264 264 264 264 263 263 263 263 262 262 262 262 262 262 262 262 262 262 262 262 263 264 266 267 267 268 268 269 269 270 270 270 270 270 270 270 270 271 271 272 272 272 272 272 272 272 272 272 271 271 270 270 270 270 270 271 271 271 271 271 271 271 271 271 271 271 271 271 271 271 271 271 271
268 267 267 267 266 266 266 265 265 264 264 264 263 263 263 263 263 262 262 262 262 262 262 261 261 261 261 261 261 261 262 262 263 264 266 266 267 268 268 269 269 270 270 269 269 269 269 269 269 269 270 270 270 270 270 270 271 271 271 270 270 270 270 270 270 270 270 270 270 270 270 270 270 270 270 270 270 271 271 271 271 271 271 271 271
267 267 267 267 266 265 265 265 264 264 263 263 263 262 262 262 262 262 262 262 261 261 261 261 261 261 261 260 260 261 261 261 262 264 265 266 268 268 269 269 269 269 268 268 267 267 268 268 268 268 268 268 268 268 269 269 269 270 270 270 270 270 270 270 270 270 270 270 270 270 270 270 270 270 270 270 270 270 270 270 270 270 270 270 270
266 266 266 266 265 265 264 264 263 263 263 262 262 262 262 261 261 261 261 261 261 261 261 261 260 260 260 260 260 260 260 261 262 264 265 266 267 268 268 268 268 267 267 266 266 266 266 267 267 267 267 267 267 267 267 267 268 268 269 269 269 269 269 270 270 270 270 270 270 270 270 270 270 270 270 270 270 270 270 270 270 270 270 270 270
266 266 265 265 264 264 264 263 263 262 262 262 262 261 261 261 261 261 261 261 260 260 260 260 260 259 259 259 259 259 260 260 262 264 265 266 267 267 267 267 267 267 266 266 265 265 265 265 266 266 267 267 267 267 267 267 267 267 268 268 268 268 268 268 269 269 269 269 269 269 269 269 269 269 268 268 268 268 269 269 269 269 269 269 269
265 265 264 264 264 263 263 262 262 261 261 261 261 261 261 260 260 260 260 260 260 259 259 259 259 259 259 259 259 259 259 260 262 263 264 265 265 266 266 266 266 266 266 265 265 265 265 265 265 265 265 266 266 266 267 267 267 267 267 267 267 267 267 267 268 268 268 268 268 268 268 268 268 268 268 268 268 268 268 269 269 269 269 269 269
265 264 263 263 263 262 262 261 261 261 261 260 260 260 260 260 260 259 259 259 259 259 259 259 259 259 259 259 259 259 259 260 261 262 263 264 264 265 265 265 266 266 265 265 264 264 264 264 264 264 265 265 265 266 266 267 267 267 267 267 267 267 267 267 267 267 268 268 268 268 268 268 269 269 269 269 269 269 269 269 269 269 269 269 269
263 263 262 262 261 261 261 260 260 260 260 260 259 259 259 259 259 259 258 258 258 258 258 258 258 258 258 258 258 258 259 259 259 260 261 263 264 264 264 265 265 265 265 264 264 264 264 264 264 264 264 264 265 265 266 266 267 267 267 267 267 267 267 267 267 267 267 267 267 267 268 268 268 268 268 268 268 268 268 268 268 268 269 269 269
262 261 261 260 260 260 260 260 259 259 259 258 258 258 258 258 258 258 258 258 258 258 258 258 258 258 258 258 258 258 258 258 258 259 260 262 263 264 264 264 264 264 264 264 263 263 263 263 263 263 263 263 264 264 265 266 266 266 266 267 267 267 267 267 267 267 266 266 266 266 266 266 266 266 266 266 267 267 267 267 267 268 268 268 269
260 260 259 259 259 259 259 258 258 258 257 257 257 257 257 257 257 257 257 257 257 257 257 257 257 257 257 257 257 257 257 257 258 258 260 261 263 263 264 264 264 264 263 263 263 262 262 262 262 262 262 262 263 263 264 265 265 265 266 266 266 266 266 266 266 266 266 266 266 266 266 266 266 266 266 267 267 267 267 266 267 267 268 268 268
259 259 258 258 258 258 257 257 257 256 256 256 256 256 256 256 256 256 256 257 256 256 256 256 256 256 257 257 257 257 257 258 258 258 259 260 262 263 263 263 263 263 262 262 262 262 262 262 262 261 261 261 262 262 263 264 264 265 265 265 265 265 265 265 265 265 266 266 266 266 266 267 267 267 267 267 267 267 267 267 266 267 267 268 268
258 257 257 257 257 256 256 256 256 256 256 256 255 255 256 256 255 255 255 255 255 255 255 255 256 256 257 257 257 257 257 258 258 258 258 259 261 262 262 263 262 261 261 261 261 261 261 261 260 260 260 261 261 262 263 263 264 263 264 264 264 264 264 264 264 264 265 265 265 266 266 266 267 267 267 267 267 267 267 267 266 267 267 267 267
257 256 256 256 256 255 255 255 255 255 255 255 255 255 255 255 254 254 255 255 255 255 255 256 256 256 256 257 257 257 258 258 258 258 258 259 260 261 262 262 261 260 260 260 260 260 260 260 260 260 260 261 261 262 262 262 262 262 263 263 263 263 262 263 263 263 264 264 265 265 265 266 266 266 267 267 267 267 267 266 266 267 267 267 267
256 255 255 255 255 255 254 255 255 255 255 254 254 254 254 254 254 254 254 255 255 255 255 256 256 256 257 257 257 258 258 258 258 258 258 259 259 260 261 261 260 260 260 260 259 259 259 259 259 260 260 260 260 261 260 260 260 261 261 261 261 261 261 262 262 262 263 263 264 264 265 265 265 266 266 266 266 266 266 266 266 266 267 267 267
255 255 254 254 254 254 254 254 254 254 253 253 253 253 253 253 253 254 254 254 254 255 255 256 256 256 257 257 257 258 258 258 258 258 258 258 259 259 260 260 259 259 259 259 259 259 258 259 259 259 259 259 259 259 259 259 259 259 259 259 260 260 260 261 261 262 262 263 263 264 264 265 265 265 265 265 265 265 266 266 266 266 266 266 266
254 254 254 254 253 253 253 253 253 253 253 252 252 253 253 253 253 253 253 254 254 254 255 255 256 256 257 257 258 258 258 258 258 258 258 258 258 258 259 258 258 258 258 258 258 258 258 258 258 258 258 258 258 258 258 258 258 258 258 258 259 259 260 260 261 261 262 262 263 263 264 264 264 264 264 264 264 265 266 266 266 266 266 266 266
253 253 253 253 253 253 252 252 252 252 252 252 252 252 252 252 252 252 253 253 253 254 254 255 255 256 257 257 257 257 257 258 258 258 258 258 258 258 258 258 258 258 258 258 258 257 257 257 257 257 257 257 257 257 257 257 257 257 258 258 258 259 259 259 260 260 260 261 262 262 263 263 263 263 263 264 264 265 265 265 266 266 266 266 266
253 252 252 252 252 252 252 252 252 252 252 251 251 251 251 251 251 252 252 252 253 253 254 254 255 255 256 257 257 257 257 257 257 258 258 258 258 258 258 258 258 258 258 258 257 257 257 256 256 256 256 256 256 256 256 256 256 257 257 257 258 258 258 258 259 259 260 260 261 261 261 262 262 263 263 263 264 264 264 264 264 265 266 266 266
252 252 252 252 252 252 252 252 252 251 251 251 251 251 250 250 251 251 251 252 252 253 253 254 254 255 255 256 256 257 257 257 257 257 258 258 258 258 257 257 257 257 257 257 256 256 256 256 256 256 256 255 255 255 256 256 256 256 256 257 257 257 258 258 258 259 259 260 260 260 261 261 262 262 262 263 263 264 264 263 264 264 265 265 266
252 252 252 252 252 251 251 252 251 251 251 251 250 250 250 250 250 250 251 251 252 252 252 253 253 254 254 255 256 257 257 257 257 257 257 257 257 257 256 256 257 257 256 255 255 255 255 255 255 255 255 255 255 255 255 255 255 256 256 256 256 257 257 258 258 258 259 259 259 260 260 260 261 261 262 262 263 263 263 263 263 264 264 265 266
251 251 251 251 251 250 251 251 251 250 250 250 250 250 250 250 250 250 250 251 251 251 251 252 252 253 253 254 255 256 256 256 256 256 256 256 256 256 256 256 256 255 254 254 254 254 254 254 254 254 254 254 254 254 254 254 254 255 255 255 256 256 256 257 257 258 258 258 259 259 259 260 260 261 261 262 262 263 263 263 263 263 264 265 266
250 250 250 250 250 250 250 250 250 250 250 249 249 249 250 250 250 250 250 250 250 250 251 251 251 252 252 253 254 255 256 256 255 255 255 255 255 255 254 255 254 254 253 253 253 253 254 253 253 253 253 253 253 253 253 253 254 254 254 255 255 256 256 256 256 256 257 257 258 258 259 259 260 260 261 261 262 262 263 263 263 263 264 265 265
249 249 249 249 249 249 250 249 249 249 249 249 249 249 249 249 250 250 250 250 250 250 250 250 250 250 251 251 253 254 255 255 255 254 254 254 254 254 253 253 253 252 252 252 252 253 253 253 253 253 253 253 253 253 253 253 253 253 254 254 255 255 255 255 255 255 256 257 257 258 258 259 259 260 260 261 261 262 262 263 263 263 263 264 265
249 249 248 248 248 249 249 249 248 248 248 248 248 248 249 249 249 249 249 249 249 249 249 249 249 250 250 251 252 252 253 253 253 253 253 254 254 253 252 252 252 251 251 251 251 252 252 252 252 252 252 252 252 252 252 252 252 253 253 253 254 254 254 254 255 255 256 257 257 258 258 258 259 259 260 260 261 262 262 262 263 263 263 264 264
249 248 248 248 248 248 248 248 248 248 247 247 248 248 248 249 248 248 249 249 249 249 249 249 249 249 250 250 251 251 252 252 252 253 253 253 252 252 252 252 252 251 251 251 251 251 251 251 251 251 251 251 251 251 251 251 251 252 252 252 253 253 254 254 255 255 256 256 257 257 257 257 257 258 259 260 261 261 262 262 262 263 263 264 264
248 248 247 247 247 247 248 248 247 247 247 247 247 248 248 248 248 248 248 248 248 248 248 248 248 248 249 250 250 250 251 251 252 252 252 252 251 251 251 251 251 251 251 250 250 250 250 250 250 250 250 250 250 250 250 251 251 251 251 251 252 252 253 253 254 255 255 255 256 256 256 256 256 257 258 260 260 261 261 262 262 262 262 263 262
247 247 247 247 247 247 247 247 247 247 246 247 247 247 247 247 247 247 247 248 247 247 248 248 248 248 249 249 250 250 250 251 251 251 251 251 250 250 250 250 250 250 250 250 250 249 249 250 250 249 249 249 249 249 250 250 250 250 250 251 251 251 252 253 253 254 254 255 255 256 255 255 256 257 258 259 260 261 261 261 261 261 261 261 261
247 246 246 246 246 246 247 247 246 246 246 246 246 247 246 247 247 247 247 247 247 247 247 247 247 248 248 249 249 249 250 250 251 251 251 250 250 250 249 249 249 249 249 249 249 249 249 249 249 249 249 249 249 249 249 249 250 250 250 250 251 251 252 253 253 253 254 254 255 255 255 255 256 257 258 259 260 261 261 261 261 261 261 260 261
246 246 246 246 246 246 246 246 246 246 246 246 246 246 246 246 246 246 247 247 246 246 247 247 247 248 248 248 248 249 250 250 251 251 250 250 250 249 249 249 249 249 249 249 248 248 248 248 248 248 248 248 248 248 249 249 249 249 249 250 251 251 252 252 253 253 253 254 254 254 254 255 255 257 258 259 260 260 260 260 261 261 261 261 260
246 246 245 245 245 245 245 245 245 245 245 245 245 245 245 245 246 246 246 246 246 246 246 247 247 247 247 247 247 248 249 250 250 250 249 249 249 249 249 249 249 248 248 248 248 248 248 248 248 248 248 248 248 248 248 248 249 249 249 250 250 251 251 252 252 252 252 253 253 254 254 254 255 257 259 259 259 260 260 260 260 260 260 260 259
245 245 245 245 245 245 244 245 245 245 245 245 245 245 245 245 245 245 245 245 246 246 246 246 246 246 246 246 246 247 248 248 249 249 249 249 249 249 248 248 248 248 247 247 247 247 247 247 247 247 247 247 247 247 248 248 248 249 249 249 250 250 251 251 251 252 252 252 253 253 254 254 255 256 258 258 258 259 259 259 259 259 258 259 259
245 245 245 245 244 244 244 244 244 244 244 244 244 244 244 244 244 245 245 245 245 245 245 246 246 246 246 246 246 246 247 247 248 248 248 248 248 248 248 248 248 247 247 247 247 246 246 246 246 246 246 247 247 247 248 248 248 248 249 249 249 250 250 251 251 251 251 252 252 253 254 255 255 256 257 257 258 258 258 259 259 258 258 258 258
244 244 244 244 244 244 244 244 244 244 244 244 244 244 244 244 244 244 244 244 244 245 245 245 245 245 245 245 246 246 246 247 247 247 247 248 248 248 248 247 247 247 246 246 246 246 246 246 246 246 247 247 247 248 248 248 248 248 248 249 249 249 249 250 250 251 251 251 252 253 254 255 255 256 257 257 257 257 258 258 258 258 258 258 258
244 244 244 244 243 243 243 243 243 243 243 243 243 243 243 243 243 243 244 244 244 244 244 245 245 244 245 245 245 245 246 246 246 247 247 247 247 247 247 247 246 246 246 246 246 246 246 246 246 247 247 248 248 248 248 248 249 249 249 249 249 249 250 250 250 250 251 251 253 254 254 255 256 256 256 257 257 257 258 258 258 258 258 258 258
243 243 243 243 243 243 243 243 243 243 243 243 243 243 243 243 243 243 243 244 244 244 244 244 244 244 244 245 245 245 245 245 246 246 246 246 246 246 246 246 246 246 246 246 246 246 246 247 247 247 248 248 248 248 249 249 249 249 249 249 249 249 250 250 250 251 251 252 253 253 254 255 255 256 256 256 257 257 257 258 257 257 257 258 258
243 243 243 243 243 243 243 243 243 243 243 243 242 242 243 243 243 243 243 243 243 243 243 244 244 244 244 244 244 244 245 245 245 246 246 246 246 246 246 246 246 246 246 246 246 247 247 247 247 248 248 248 249 249 249 249 249 249 249 249 249 250 250 250 251 251 252 252 253 253 254 255 255 256 256 256 256 256 257 257 257 257 257 257 257
243 243 243 243 243 243 243 243 242 242 242 242 242 242 242 242 242 242 243 242 242 243 243 243 243 243 244 244 244 244 244 245 245 245 245 245 245 245 245 245 245 245 246 246 247 247 247 248 248 248 248 249 249 249 249 249 249 249 249 249 250 250 250 250 251 252 252 253 253 253 254 255 255 255 256 256 256 256 256 256 256 257 256 256 256
243 243 243 243 243 243 243 242 242 242 242 242 242 242 242 242 242 242 242 242 242 242 243 243 243 243 243 243 244 244 244 244 245 245 245 245 245 245 245 245 245 246 246 246 247 247 247 248 248 248 249 249 249 249 250 250 249 250 250 250 250 250 250 250 251 252 252 253 253 253 254 254 255 255 255 255 255 255 255 255 256 256 256 256 256
243 243 243 243 242 243 242 242 242 242 242 242 242 242 242 242 242 242 242 242 242 242 243 243 243 243 243 243 243 244 244 244 244 244 245 245 245 245 245 245 245 246 246 247 247 248 248 248 248 249 249 249 249 250 250 250 250 250 250 250 250 251 251 251 251 252 252 252 253 253 253 254 254 254 254 255 255 255 255 255 256 256 256 255 255
243 243 243 242 242 242 242 242 242 242 242 242 242 242 242 242 242 242 242 242 242 242 242 242 243 243 243 243 243 243 244 244 244 244 244 244 244 245 245 245 246 246 247 247 247 248 248 248 249 249 249 250 250 250 250 250 250 250 251 251 251 251 252 252 252 252 252 253 253 253 253 254 254 254 254 255 255 255 256 256 256 256 255 255 255
243 243 243 243 243 243 243 243 242 242 242 242 242 242 242 242 242 242 242 242 242 242 242 242 242 243 243 243 243 243 243 244 244 244 244 244 245 245 245 246 246 246 247 247 248 248 249 249 249 250 250 250 250 250 250 250 250 250 251 251 251 251 252 252 252 253 253 253 253 254 254 254 254 255 255 255 255 256 256 256 256 255 255 255 255
Wind_Speed
14 13 12 11 10 9 9 8 8 7 7 7 6 6 6 5 5 5 5 5 5 6 6 6 7 8 8 8 9 9 10 10 11 11 12 13 14 14 15 15 17 18 19 20 19 19 20 21 23 24 24 24 25 25 25 25 24 25 24 23 23 22 22 21 15 14 20 21 19 18 16 17 19 19 20 21 23 24 24 23 23 22 22 22 22
13 11 10 10 9 9 9 9 8 8 7 7 7 6 6 6 6 6 5 6 6 7 7 7 8 8 9 9 9 9 10 10 11 11 12 13 14 14 14 15 16 18 18 20 20 20 21 22 23 24 23 24 25 26 26 26 26 28 27 23 23 23 22 23 21 16 18 20 18 18 17 18 21 21 19 20 21 23 23 23 23 22 22 22 22
11 10 9 8 8 8 8 8 7 7 7 7 7 6 6 6 6 7 6 6 7 7 8 8 9 9 9 10 10 10 11 11 11 12 12 13 14 14 15 15 16 17 18 19 20 20 21 22 24 25 25 25 26 27 27 28 28 29 29 26 25 25 23 25 25 20 18 20 18 20 21 21 22 21 19 19 20 22 23 23 24 24 24 24 24
9 8 8 7 7 7 7 7 7 7 6 6 6 6 6 6 7 8 7 7 8 8 9 9 10 10 10 10 10 11 11 11 12 12 12 13 14 15 15 15 17 18 19 20 20 21 21 22 24 25 26 26 27 28 28 29 30 29 29 27 27 28 25 25 26 21 18 18 19 21 21 20 20 20 19 19 20 22 23 23 25 25 25 26 26
8 8 7 6 7 7 6 6 6 6 6 5 5 6 6 7 7 8 8 9 9 9 10 10 10 10 11 11 12 12 12 13 13 13 13 14 14 15 16 16 17 18 19 20 21 22 22 23 24 24 25 26 27 28 29 29 30 29 28 26 26 26 24 23 23 21 18 17 18 20 18 16 17 18 18 18 19 21 22 23 26 27 28 28 28
8 7 6 6 6 6 6 6 6 7 6 5 6 6 7 7 7 8 9 9 10 10 10 11 11 11 12 12 13 13 13 13 13 14 14 14 14 15 16 17 18 18 20 21 21 21 22 23 24 23 24 26 26 28 29 28 29 31 31 30 25 22 22 22 22 20 18 18 18 18 16 14 15 15 16 18 18 20 21 22 23 26 27 27 26
7 7 6 5 5 5 6 6 6 7 6 5 6 6 6 7 7 8 9 9 9 9 10 11 11 11 12 13 14 14 14 14 14 14 14 14 14 15 16 17 18 19 20 20 20 20 20 21 22 22 23 25 26 27 28 28 31 33 34 34 29 23 20 19 19 17 17 17 17 16 15 15 14 14 15 17 18 20 20 21 22 23 24 24 24
6 6 5 4 4 4 4 4 5 6 6 4 5 6 6 7 7 8 9 9 8 9 11 11 11 12 13 13 13 14 14 15 14 14 15 15 15 17 18 18 19 19 20 21 21 21 21 21 21 23 25 26 27 28 28 29 31 32 33 35 33 28 22 16 14 14 14 14 14 14 14 14 13 13 13 14 17 18 18 18 21 23 23 23 24
5 5 4 3 3 3 3 4 4 6 6 5 5 7 8 9 8 9 9 9 9 10 11 11 12 14 14 14 15 16 17 17 16 16 17 18 18 18 19 19 20 21 21 21 22 22 23 23 23 24 27 27 27 29 30 30 30 28 32 35 34 30 22 16 14 15 15 16 16 15 13 13 12 12 12 13 15 18 19 20 21 23 24 24 25
5 6 5 3 4 4 4 4 6 7 7 7 8 9 10 10 10 10 10 9 11 11 11 12 14 15 16 17 18 19 19 20 20 19 19 19 20 20 20 21 21 21 22 22 23 23 22 23 24 25 27 27 28 28 29 31 31 31 35 37 34 30 22 15 16 18 16 16 17 16 13 12 12 12 13 15 16 18 20 20 21 23 22 22 23
6 7 5 3 4 5 5 6 7 8 9 9 9 10 11 11 11 11 11 12 13 12 13 14 15 16 16 18 19 19 20 21 21 20 20 20 21 21 21 21 21 22 22 21 19 19 19 21 23 23 24 25 26 27 28 28 28 31 34 32 29 28 23 18 17 19 17 16 16 16 14 13 13 13 14 15 16 17 20 21 21 22 20 17 16
6 7 6 5 5 6 7 8 9 10 11 11 11 12 12 12 12 13 13 13 14 13 14 15 15 15 15 17 19 20 21 21 21 20 21 21 21 21 21 21 22 21 18 14 12 12 14 15 18 20 21 21 23 24 26 26 23 24 26 24 21 22 21 19 18 17 16 16 15 16 15 14 15 15 16 16 17 19 21 21 21 22 22 19 18
7 8 8 7 7 8 9 10 11 11 11 11 11 12 12 12 12 12 12 12 12 13 14 15 15 14 15 18 21 22 22 22 21 20 21 21 21 20 19 20 19 15 12 11 10 9 10 10 12 14 16 18 19 18 19 22 22 20 20 19 18 19 20 22 22 20 18 17 17 17 17 15 16 18 18 17 19 20 21 22 22 23 23 23 22
8 9 9 8 8 8 9 10 11 11 11 11 12 12 13 13 12 11 11 11 12 13 13 14 14 14 15 19 21 22 24 24 21 20 20 20 20 19 18 17 13 9 8 10 10 9 9 10 11 11 11 13 14 13 13 16 17 18 17 17 17 17 19 21 22 22 21 18 17 18 18 18 18 18 18 18 20 21 22 22 23 24 26 27 27
8 9 8 7 7 8 9 10 11 12 12 12 13 13 14 13 11 11 11 11 12 13 13 14 15 14 16 20 21 23 26 23 20 20 20 19 19 19 17 14 11 9 8 9 10 11 12 12 12 12 12 12 12 12 12 13 14 15 15 15 16 17 19 22 23 23 23 22 20 19 21 24 24 24 26 28 29 30 29 28 27 28 30 29 29
10 8 7 7 8 9 10 11 10 11 12 12 13 13 14 12 11 11 12 12 13 14 15 16 16 15 16 19 20 24 25 21 19 19 19 20 20 19 17 15 14 11 9 9 10 12 14 14 14 14 14 15 15 14 14 14 14 15 16 18 19 18 19 22 24 25 26 26 27 27 27 29 30 32 33 34 33 33 30 28 26 27 28 24 25
8 7 7 8 9 10 10 10 10 11 12 12 13 13 12 11 10 11 12 13 14 15 15 15 14 14 15 16 18 21 21 19 18 20 21 21 21 19 17 18 17 14 11 10 11 13 14 14 15 15 15 16 16 17 17 17 17 17 18 19 20 20 19 18 22 26 26 26 27 28 29 30 31 32 32 31 30 27 22 19 18 18 18 15 15
7 7 9 10 10 9 10 10 11 11 12 12 13 13 13 11 10 11 12 13 15 15 15 15 14 14 15 15 17 19 22 22 21 21 22 21 20 19 18 18 18 16 13 11 10 11 12 12 12 13 13 14 15 16 18 19 19 19 19 20 21 22 20 17 19 25 27 26 27 28 29 30 31 31 30 29 27 23 18 16 16 16 16 14 13
7 8 9 9 10 11 12 12 11 12 14 14 14 15 14 11 10 12 13 14 16 16 14 14 15 15 15 16 17 19 22 25 24 22 21 20 19 18 17 17 18 16 13 10 9 8 8 8 8 8 9 12 14 16 17 18 18 18 19 20 21 22 22 20 22 25 25 25 26 27 28 30 31 32 32 31 30 27 23 19 16 16 18 17 17
8 8 9 10 12 13 13 13 13 14 15 15 15 14 12 11 11 13 14 15 15 15 14 14 16 16 15 14 16 18 21 24 24 21 20 19 18 17 16 17 17 13 9 8 9 8 7 7 7 8 10 13 14 16 17 17 18 19 19 18 19 20 20 18 17 18 18 19 21 22 23 24 25 26 27 27 27 27 25 21 17 16 18 19 19
8 9 11 13 13 13 12 13 14 14 15 14 15 15 13 13 14 14 14 13 14 15 17 17 16 16 14 13 14 16 19 22 23 21 18 18 18 16 15 16 14 9 6 7 7 8 8 8 8 11 14 15 16 17 18 19 20 19 16 15 16 17 14 9 7 8 9 12 14 16 17 18 19 20 21 21 20 18 17 18 18 17 18 18 18
9 11 13 13 13 13 13 13 13 14 15 15 17 18 16 15 16 17 16 14 15 17 19 17 14 13 13 13 13 15 18 21 22 20 16 16 16 15 15 15 10 4 4 6 7 8 9 9 9 12 14 16 18 18 20 21 20 16 13 15 16 15 11 8 8 9 9 11 12 13 13 14 15 17 17 19 19 15 12 14 17 19 18 18 17
13 15 14 13 14 14 14 15 15 16 18 18 19 19 17 15 16 16 14 13 14 15 14 13 12 12 13 14 14 16 19 19 19 18 15 13 14 14 15 13 5 1 2 6 7 9 10 9 9 12 14 16 18 20 20 21 19 16 16 18 18 15 12 11 11 12 12 13 13 13 13 13 13 14 14 13 13 12 11 13 17 19 19 19 19
18 17 14 13 14 14 15 17 17 18 18 17 17 17 15 15 15 12 11 11 12 13 12 12 12 13 14 14 15 16 18 17 16 16 13 11 12 13 13 9 5 3 4 6 7 8 8 9 11 14 16 17 18 20 20 19 17 16 17 17 17 15 14 13 13 13 14 14 14 15 15 14 13 13 12 11 12 15 15 15 15 15 16 19 21
18 16 14 13 14 15 17 18 16 16 16 13 12 13 12 12 12 11 11 11 11 12 12 12 12 13 14 14 14 16 18 17 14 12 10 10 10 10 9 8 7 6 6 6 7 8 10 12 14 14 15 16 16 17 18 17 16 17 17 17 16 15 14 14 14 14 13 14 15 16 16 16 15 14 13 14 17 18 16 13 12 11 12 14 16
16 14 13 12 12 15 17 15 11 12 12 10 10 10 10 9 10 11 11 11 11 11 12 12 12 13 13 14 14 16 18 16 12 9 7 6 7 7 7 7 8 8 8 8 9 11 12 12 13 13 13 14 15 17 18 19 19 19 19 17 15 13 13 13 12 12 13 14 15 15 16 16 15 15 16 17 18 16 12 10 10 10 9 8 9
12 13 14 12 10 12 13 11 10 10 9 9 9 11 10 9 9 10 10 10 10 11 11 12 12 13 13 14 14 16 16 14 10 7 4 4 6 6 6 6 7 8 9 11 11 11 11 12 13 14 14 14 16 18 19 19 19 17 16 15 14 13 13 12 12 12 13 14 14 15 15 15 14 15 16 16 15 13 11 9 9 11 9 7 7
13 15 15 12 10 9 9 10 10 9 8 9 10 11 11 10 9 9 9 10 10 11 12 13 13 14 14 15 15 15 14 11 7 5 4 5 7 8 7 7 8 9 10 11 10 10 10 12 14 14 15 15 17 17 17 18 17 16 16 15 14 14 14 14 14 14 14 14 15 15 14 14 15 15 15 15 15 15 12 9 10 11 11 8 8
14 14 13 10 9 9 9 9 9 8 9 10 9 10 11 11 11 12 11 10 10 12 13 14 15 15 16 16 16 14 12 9 6 6 7 7 8 8 9 9 10 10 10 9 8 9 11 13 14 15 16 17 17 16 16 15 15 15 15 14 14 14 14 14 14 14 14 14 15 15 15 15 15 15 15 15 15 15 13 11 10 10 10 10 10
12 11 11 11 11 11 10 9 8 9 10 11 11 12 14 13 12 12 13 12 12 13 14 15 16 16 17 18 16 13 11 9 8 9 10 10 10 10 10 10 10 9 9 8 8 10 12 14 16 16 15 14 14 13 13 13 13 13 13 12 12 12 13 13 14 14 14 14 15 15 16 16 16 15 15 15 15 14 13 12 11 10 10 11 12
12 11 12 13 15 15 12 9 9 10 11 11 11 12 14 15 13 10 10 11 13 14 14 15 15 16 16 17 16 14 12 9 9 10 10 10 12 11 9 8 8 8 8 9 10 12 14 15 16 14 12 11 11 11 11 11 11 11 11 11 11 11 11 12 12 12 12 13 14 14 14 15 15 15 15 15 15 14 14 13 11 10 11 12 13
13 13 15 16 16 14 11 9 10 10 10 11 10 9 11 14 15 12 10 10 12 14 15 15 16 16 16 16 16 14 11 9 9 9 9 11 12 9 6 6 8 9 10 11 11 12 13 13 12 11 9 9 9 9 9 10 10 10 10 11 10 10 10 10 10 11 11 12 12 13 13 14 14 14 15 15 14 14 14 13 12 10 10 12 12
17 18 19 17 15 12 10 10 10 9 9 11 11 10 10 11 13 14 14 13 12 12 12 14 16 17 15 15 14 13 11 10 9 7 9 11 9 5 5 8 9 10 12 11 9 10 10 9 9 9 8 8 8 8 9 9 9 10 10 10 10 10 10 11 12 11 11 10 11 11 12 12 13 13 14 14 14 13 13 13 11 10 9 10 11
20 21 20 17 14 12 11 11 10 10 11 12 12 11 10 10 10 12 15 15 15 13 11 12 16 17 15 13 12 10 10 10 9 8 10 9 6 5 9 11 10 10 10 8 7 8 8 8 8 8 8 8 8 8 9 9 9 9 10 10 10 10 10 11 11 9 8 9 9 10 10 11 12 13 13 13 13 13 13 12 11 9 9 9 9
22 23 21 18 14 12 11 10 10 11 11 12 11 10 9 9 9 11 12 13 14 14 13 13 15 17 15 12 10 9 9 9 9 9 9 7 6 9 12 11 9 9 8 7 7 7 7 8 8 8 8 8 8 8 9 9 9 9 9 10 10 11 11 11 10 9 9 10 10 10 10 11 12 13 13 13 12 12 11 11 10 10 9 8 8
23 22 19 16 13 12 11 10 10 11 12 12 11 10 9 9 9 10 11 11 11 12 13 13 14 16 15 11 9 9 8 7 8 9 7 6 8 11 10 9 9 9 8 8 8 7 8 9 8 8 8 9 8 9 9 9 9 10 10 11 12 11 11 11 11 12 13 12 11 11 11 12 13 13 13 12 12 11 11 10 10 9 8 6 4
23 20 16 14 13 12 11 10 11 12 12 11 10 8 8 8 8 9 10 10 9 11 12 12 13 14 13 12 10 10 8 8 8 7 5 6 9 9 7 7 7 8 8 8 8 8 8 8 7 7 8 9 9 9 9 9 9 10 11 12 13 13 13 13 13 14 14 13 11 12 13 13 13 12 11 11 10 10 10 9 8 6 6 5 4
20 18 17 15 13 12 11 12 13 12 11 9 8 7 8 8 8 9 9 8 9 10 11 11 11 10 10 12 13 13 11 9 7 5 5 6 8 7 6 6 7 7 8 8 7 7 8 8 8 8 9 9 10 10 9 9 9 10 11 13 13 13 14 14 12 12 12 11 11 13 15 14 11 9 9 9 9 8 7 7 6 4 4 4 4
17 17 18 16 13 12 12 13 13 11 10 8 7 8 8 9 8 8 8 8 9 9 10 10 10 9 10 13 15 14 11 7 6 5 6 7 6 5 5 6 7 7 8 7 7 7 8 8 9 9 9 10 11 10 9 10 10 11 12 13 12 11 10 10 10 10 10 11 13 15 17 15 11 6 6 6 5 4 4 5 4 3 2 3 2
14 16 17 16 14 14 14 13 11 9 9 8 8 9 9 9 8 8 8 9 9 9 9 9 9 9 12 14 15 13 9 7 6 7 7 6 6 5 5 6 7 7 7 7 7 8 8 9 10 10 10 11 11 10 10 12 12 12 12 11 10 10 9 9 10 12 13 14 15 16 17 17 13 8 4 2 2 2 3 2 1 1 1 1 1
14 14 14 15 15 15 13 11 9 9 9 9 9 9 8 8 8 8 9 9 9 9 9 8 8 9 12 14 13 12 9 7 7 7 6 5 5 5 6 6 6 6 7 7 7 8 9 10 10 10 11 10 10 11 13 14 13 12 11 11 10 11 10 9 10 13 15 16 16 16 17 16 13 9 7 5 4 3 2 1 0 1 2 2 2
14 13 14 14 14 13 11 9 9 9 9 9 8 8 8 9 9 9 9 9 9 9 9 8 8 10 12 13 13 12 10 9 8 7 5 4 4 5 6 6 5 6 9 10 11 11 13 13 11 10 11 12 14 15 16 15 13 12 12 12 12 12 11 11 11 12 14 15 15 15 15 14 12 9 8 6 4 3 2 2 2 3 3 3 3
14 14 14 13 12 10 10 9 9 9 8 8 8 9 9 9 9 9 9 9 9 9 9 9 9 11 12 14 13 11 10 10 9 7 5 5 5 5 6 6 7 10 14 15 14 13 14 15 15 14 14 16 17 17 15 14 14 13 13 13 13 13 14 14 13 13 13 14 14 14 13 11 10 9 8 6 5 3 3 3 4 4 4 4 4
14 13 13 12 11 10 9 8 8 9 9 9 9 9 9 9 8 8 9 8 8 8 8 8 9 11 12 13 12 11 10 11 10 8 7 7 7 7 8 9 12 16 18 18 16 15 16 17 18 18 18 18 17 15 14 14 13 13 14 14 14 15 16 16 15 14 14 14 13 13 11 10 9 8 7 7 6 4 3 4 4 4 5 5 5
13 13 12 11 10 10 9 9 9 9 9 9 9 9 9 8 8 8 8 8 8 8 8 8 9 11 11 11 11 11 11 12 11 9 9 9 9 10 11 13 16 19 20 20 19 18 17 17 18 18 18 17 15 14 14 13 13 13 13 14 15 16 17 16 15 14 13 12 12 12 11 10 9 8 7 7 7 5 4 4 4 4 5 5 5
13 12 11 10 9 9 9 9 9 9 9 9 9 9 8 8 8 8 8 8 8 8 8 9 10 11 11 11 11 11 12 12 11 11 10 11 11 13 14 16 19 20 21 20 19 17 16 16 16 16 16 16 15 15 14 13 13 13 13 13 14 15 15 15 15 14 12 12 12 12 11 11 10 9 8 8 8 7 7 7 6 5 5 5 5
13 12 10 10 9 9 9 10 10 9 9 9 10 9 9 8 9 9 9 10 10 9 9 10 10 10 11 11 12 12 13 13 12 12 12 12 13 15 16 18 20 20 19 18 17 16 16 15 15 15 15 15 15 15 14 12 12 11 11 11 12 13 13 14 14 13 12 12 12 12 11 11 11 10 10 10 10 9 9 8 7 7 7 7 5
12 12 11 10 10 9 9 9 10 10 10 10 11 11 10 10 10 10 10 11 11 10 10 11 11 11 11 12 12 13 13 13 13 13 13 13 15 17 18 19 19 18 18 17 16 15 14 14 14 14 14 14 13 12 12 11 11 11 10 10 10 11 11 12 12 12 12 12 12 12 12 12 12 12 12 11 11 10 9 8 7 6 7 7 6
12 12 11 11 10 9 9 10 10 10 11 11 12 11 11 11 11 11 11 12 11 11 11 12 12 12 12 13 13 14 14 14 14 14 14 15 17 19 19 18 17 17 17 17 15 14 14 13 13 12 11 11 10 11 11 11 11 11 11 11 11 10 10 10 11 11 11 12 12 12 12 12 12 12 12 11 10 10 10 9 9 8 8 8 7
13 13 12 12 12 11 11 12 12 11 12 12 11 11 12 12 12 12 12 12 12 12 12 13 13 13 14 14 14 14 14 14 14 15 16 17 18 19 18 17 17 17 17 16 15 14 13 11 10 10 9 10 10 11 12 12 12 12 12 12 12 11 11 10 10 10 10 10 10 10 11 11 11 10 10 10 9 9 9 10 10 10 9 8 7
13 14 13 13 13 12 13 13 13 13 13 13 12 11 12 12 12 13 13 13 13 13 13 13 14 14 14 13 13 13 14 15 15 16 17 18 18 17 17 17 18 17 16 15 13 12 11 10 10 10 10 11 12 12 13 13 13 13 13 13 13 12 12 11 10 9 9 9 9 9 9 9 9 8 9 9 9 9 10 10 10 10 9 7 6
Wind_Direction
58 56 55 55 56 56 51 48 45 44 48 49 48 43 32 28 21 9 5 1 353 344 339 333 325 320 314 308 304 299 296 293 290 286 282 279 278 278 277 276 274 272 272 270 268 267 264 260 257 257 259 259 257 256 254 252 250 246 242 240 238 233 232 236 243 260 262 258 260 265 264 269 273 270 269 269 268 269 269 269 272 272 271 275 278
51 49 49 47 46 44 39 39 41 45 51 48 43 40 31 25 17 8 4 358 354 348 340 333 325 320 315 308 304 301 298 295 293 291 287 286 286 284 283 281 279 277 275 274 272 271 269 266 264 264 263 261 257 255 256 255 254 253 247 241 240 236 230 234 242 250 258 259 259 264 266 269 273 272 269 270 273 274 272 270 270 271 271 273 276
49 46 48 46 42 41 41 44 45 45 46 41 34 29 21 16 9 4 359 350 349 344 336 333 328 322 317 311 308 305 302 300 296 293 291 290 288 285 283 281 280 279 277 276 275 274 273 270 269 269 269 267 261 256 256 257 257 255 249 242 243 242 234 235 240 244 253 259 260 265 268 268 270 273 271 273 278 279 276 272 270 271 273 274 274
48 45 46 46 45 47 49 48 42 35 32 27 24 21 12 7 2 358 353 344 342 338 333 331 327 322 317 312 310 307 304 303 299 296 294 291 289 287 286 282 280 279 278 277 277 276 275 273 272 271 270 270 266 260 259 260 258 255 249 243 243 243 238 235 238 242 249 256 261 263 265 267 268 273 277 277 279 279 277 274 271 271 272 275 274
44 43 43 45 47 47 45 40 31 24 20 14 15 14 5 2 357 351 345 339 336 333 329 327 323 320 315 311 310 307 304 303 300 299 296 293 292 289 287 285 282 280 278 277 277 276 275 273 272 272 271 270 267 264 264 262 256 252 248 244 240 237 235 234 235 239 243 249 258 261 262 266 268 272 278 280 281 279 276 276 275 272 273 274 273
39 37 38 40 39 36 33 27 21 13 8 5 6 3 359 356 347 342 338 333 331 328 325 324 320 316 312 309 308 304 302 301 298 297 295 293 293 290 288 287 283 281 279 277 276 274 273 273 273 273 271 270 268 266 265 260 252 249 247 244 238 229 228 233 233 234 240 245 253 259 261 264 266 271 276 279 283 282 281 282 279 274 274 273 271
32 28 29 32 28 27 22 17 14 5 355 350 351 348 347 343 337 335 333 329 327 323 321 320 316 311 308 306 304 300 298 297 294 294 294 293 294 293 292 290 286 283 280 278 277 275 273 273 272 273 272 271 270 268 265 260 255 252 248 244 237 226 222 227 228 229 236 242 248 253 257 262 263 266 273 279 283 282 282 284 282 279 277 274 274
24 19 20 27 26 24 16 11 11 360 347 333 331 332 332 334 331 330 330 327 322 317 317 315 310 308 306 303 301 299 298 297 295 296 298 298 298 296 293 290 286 284 282 281 281 279 277 276 274 276 277 275 273 269 266 263 258 253 248 242 235 228 225 221 220 224 229 235 243 247 252 258 259 261 269 276 281 281 282 284 282 282 283 281 278
14 10 7 19 22 15 8 6 360 354 346 333 327 328 328 330 328 327 327 321 316 314 312 309 308 309 309 307 307 307 305 303 302 302 302 300 298 294 291 288 286 285 284 283 282 281 281 281 278 279 281 280 275 271 267 263 258 251 246 242 234 228 225 220 218 224 229 236 242 243 246 251 252 257 262 266 275 281 286 286 281 282 285 284 281
5 3 360 4 6 359 358 358 351 350 348 337 330 327 327 326 322 321 321 315 315 316 311 312 315 315 314 315 314 313 310 308 307 305 301 298 295 293 290 287 285 283 282 282 282 283 284 285 284 282 282 281 277 274 270 265 260 253 247 242 234 227 220 215 221 228 230 234 239 241 245 248 247 250 258 265 273 279 283 284 281 282 285 282 281
357 356 353 350 353 350 344 346 345 344 342 336 332 329 327 325 322 321 321 318 319 319 316 317 318 316 315 314 312 309 306 307 307 304 300 297 295 293 289 286 282 279 279 279 280 282 284 286 288 287 285 283 281 278 275 270 263 256 249 242 236 231 224 217 223 228 227 231 238 241 244 247 250 254 260 268 272 275 280 281 280 281 281 277 280
350 352 350 341 345 346 341 341 341 339 338 334 332 331 328 326 323 321 320 318 317 316 313 313 312 311 311 309 308 306 304 305 306 302 300 299 296 291 287 282 279 277 277 277 277 283 288 287 287 286 285 284 283 281 279 276 268 257 249 244 241 238 232 227 225 224 224 231 238 240 242 246 252 256 260 266 272 276 279 277 274 276 276 274 275
345 345 342 335 337 338 334 334 332 330 330 327 325 325 322 318 315 313 310 308 307 306 305 306 306 306 307 309 310 309 306 306 306 301 299 299 296 295 294 287 277 271 271 276 282 287 292 296 296 291 289 289 290 289 285 278 269 255 247 245 244 241 238 236 234 231 230 234 240 243 245 249 254 256 259 266 273 277 276 270 267 271 271 270 272
339 334 329 324 323 324 323 323 322 321 320 318 317 316 315 311 307 306 305 302 301 302 302 304 304 302 307 311 311 309 308 308 305 300 298 298 297 301 304 293 276 267 272 278 284 291 296 301 302 298 298 302 301 301 296 285 274 261 252 252 251 249 247 244 241 242 241 243 248 252 253 253 255 258 259 263 268 270 270 267 267 271 270 268 271
324 321 317 313 314 317 318 316 315 316 315 313 311 311 311 309 306 305 305 301 302 303 302 303 301 299 306 311 310 309 309 309 303 298 297 298 299 301 300 288 274 271 275 273 278 290 297 299 300 297 297 297 297 297 296 292 286 276 266 264 262 260 257 253 249 249 251 254 258 260 260 258 258 262 264 266 268 266 264 264 264 268 270 270 271
317 318 315 314 317 318 318 316 313 312 311 308 308 308 307 306 303 304 303 300 301 302 300 301 299 296 300 306 307 306 306 306 303 299 297 298 300 299 293 284 277 272 268 269 278 288 291 291 293 294 291 289 287 288 287 283 282 278 271 269 265 261 260 259 256 254 254 258 262 262 263 264 262 264 266 266 266 264 263 263 263 264 267 267 269
317 325 323 321 321 319 318 315 310 309 309 306 305 305 304 303 301 302 302 300 302 302 298 297 297 294 294 295 297 299 298 299 300 299 298 297 295 294 289 283 279 272 268 271 279 285 286 284 287 288 286 285 284 283 282 280 279 276 271 269 266 260 259 260 260 262 263 264 267 268 269 271 269 269 272 271 269 271 274 274 270 267 268 267 268
326 332 327 324 323 321 317 313 309 309 308 305 304 303 303 302 300 302 302 301 302 301 299 297 296 296 295 291 292 293 293 295 297 297 297 295 290 287 285 282 279 275 274 279 281 284 284 279 281 283 282 285 286 284 283 280 277 275 270 269 267 263 260 258 260 268 271 271 274 275 276 277 277 277 280 280 280 282 282 276 272 271 270 268 269
334 332 326 324 322 318 314 311 309 308 306 304 304 304 304 303 301 302 301 301 301 300 299 299 297 296 296 292 290 291 293 297 299 297 297 295 288 283 281 280 279 276 277 285 286 286 286 279 281 288 293 297 295 290 288 287 284 281 277 272 269 265 264 264 261 264 268 269 272 275 276 279 281 280 280 280 280 278 273 268 264 262 261 261 263
332 328 323 321 318 315 314 312 309 309 309 308 307 306 305 302 301 302 302 300 299 298 298 298 297 296 295 292 291 293 296 301 303 301 297 294 288 283 280 279 281 276 272 281 282 283 291 288 291 304 310 310 306 298 295 293 290 291 289 283 279 277 276 274 268 265 266 268 269 271 272 274 276 276 275 275 275 274 271 265 256 250 254 258 259
327 323 321 319 317 316 317 316 315 316 317 315 313 311 308 304 303 304 303 298 296 299 301 300 297 295 295 292 290 293 301 308 309 304 299 293 286 282 280 280 279 268 255 267 276 283 292 294 300 310 312 312 310 303 297 292 292 295 296 289 290 298 302 300 296 290 281 275 274 271 270 272 271 267 265 265 266 266 265 263 256 249 249 252 256
324 323 321 320 319 320 321 321 322 321 320 319 317 314 311 308 305 305 304 300 298 301 303 301 296 294 297 297 292 296 308 317 316 310 302 292 284 280 281 283 280 246 239 268 279 286 293 299 308 314 315 312 308 300 293 294 299 305 303 295 300 315 325 316 306 303 293 286 284 279 278 281 281 278 273 270 269 267 260 262 266 263 256 251 252
323 322 320 319 321 322 322 323 322 320 319 319 317 315 311 309 307 305 302 299 298 298 299 298 295 294 299 304 303 305 309 313 315 314 305 288 279 276 278 284 291 178 245 277 287 292 297 305 311 314 314 311 306 303 302 306 311 310 305 304 311 321 321 306 298 296 291 287 286 285 284 283 284 286 286 284 285 286 279 273 271 268 262 256 253
321 321 319 319 321 321 321 322 322 321 321 320 317 314 311 309 307 303 297 295 296 297 297 298 299 298 301 306 309 313 313 308 307 311 304 283 277 277 278 290 324 348 297 287 292 297 301 307 310 311 312 311 309 310 313 314 313 311 310 312 314 311 304 297 292 288 285 282 280 280 279 277 278 283 286 291 299 301 297 287 278 270 263 260 257
319 319 318 318 320 322 323 324 324 323 323 321 315 310 309 307 306 304 301 297 296 297 297 298 298 298 301 304 306 315 319 311 303 306 300 281 275 280 287 303 318 319 308 297 295 300 303 305 308 309 310 312 312 313 312 308 305 307 309 308 305 300 294 289 286 283 279 277 276 275 273 274 276 277 280 289 295 297 294 288 282 278 273 270 267
316 317 318 318 320 325 326 326 322 319 320 318 311 308 306 305 304 304 304 299 296 297 299 298 298 298 299 303 307 316 320 314 302 302 299 278 271 281 295 307 308 305 301 296 295 301 303 303 307 309 308 308 308 305 302 299 297 297 298 297 293 289 285 283 281 279 276 275 274 274 273 273 275 277 279 284 286 284 280 279 281 279 276 276 278
316 318 321 320 318 321 323 320 316 315 316 316 314 312 311 307 303 302 302 303 303 302 302 302 302 302 301 304 309 316 319 316 308 304 296 275 278 286 292 299 304 299 295 297 299 301 301 301 303 304 302 302 302 299 296 294 291 290 289 286 282 281 281 282 281 280 278 277 275 273 275 275 276 277 278 277 275 271 270 274 278 279 277 273 274
318 320 323 320 314 313 312 312 314 314 314 314 313 313 313 311 306 300 298 301 302 303 305 306 304 303 303 304 307 311 314 317 316 312 308 297 295 298 299 303 307 301 297 302 303 298 297 302 304 303 303 303 302 300 296 293 290 287 284 280 278 279 279 277 276 274 272 274 274 274 275 276 274 275 274 272 272 272 270 270 273 277 278 274 268
320 320 322 317 312 313 308 306 310 312 312 313 310 308 308 308 303 299 297 294 294 299 304 305 303 303 302 299 298 299 303 307 309 311 313 310 307 313 315 311 309 307 307 312 312 302 299 302 304 304 304 304 304 302 299 296 293 290 286 282 279 278 274 272 272 273 273 274 274 274 275 274 273 274 274 273 273 272 269 270 273 274 272 266 263
324 322 323 321 319 319 312 306 310 314 313 313 312 310 311 309 300 293 294 295 297 299 301 303 304 305 302 299 294 286 282 288 298 305 308 310 317 324 323 314 312 316 322 326 319 306 301 302 302 303 303 303 303 303 302 303 302 298 295 291 285 279 274 271 272 274 275 275 274 273 273 272 272 272 271 271 273 273 272 272 271 269 266 263 263
329 324 324 323 321 318 311 304 310 314 312 312 311 311 313 313 306 294 289 294 300 303 305 306 308 307 305 305 301 289 276 278 292 301 306 314 324 328 324 319 324 331 333 330 318 305 301 300 300 302 301 300 303 305 306 308 307 305 304 301 294 288 282 277 276 277 278 278 276 273 271 270 269 269 268 269 272 273 274 273 268 262 260 261 263
331 328 326 323 319 314 306 303 308 311 310 311 309 306 308 311 311 308 302 298 301 305 307 310 314 314 311 309 305 297 287 283 291 303 315 322 326 331 332 334 338 332 325 322 313 302 299 298 297 300 301 301 304 310 312 313 312 312 312 309 306 302 294 290 291 289 282 278 276 274 272 270 268 267 265 266 268 270 271 270 265 257 258 260 260
331 330 328 323 315 305 302 305 309 309 309 308 307 305 303 304 307 310 312 311 308 306 306 311 318 320 316 312 308 303 299 299 304 318 328 325 325 338 343 336 334 327 322 320 310 300 299 298 296 299 301 303 308 312 314 315 317 317 316 314 314 311 307 307 306 295 281 276 275 275 274 273 269 267 264 262 261 263 265 264 261 256 254 256 256
330 330 327 321 310 302 303 306 307 309 310 306 301 299 298 297 301 307 312 316 318 317 314 317 323 324 321 318 315 310 307 312 319 324 324 321 324 336 332 327 325 324 325 321 307 301 302 300 299 301 303 307 311 313 314 316 317 317 316 317 315 312 312 313 309 297 287 288 287 282 280 278 272 267 263 260 258 257 257 257 257 254 247 245 250
330 330 326 322 314 303 300 303 307 310 310 305 300 297 296 298 301 304 307 312 315 316 317 321 326 327 325 322 320 317 316 320 320 318 319 324 328 328 327 325 323 323 325 321 311 306 305 302 301 304 307 309 310 312 312 312 313 313 315 316 315 315 316 315 311 308 308 306 300 294 288 282 274 265 258 255 253 252 253 254 253 248 242 240 246
331 328 325 324 319 307 300 302 309 312 310 305 300 300 299 299 302 305 306 306 306 310 314 319 324 328 327 324 319 315 314 316 315 315 321 332 332 332 332 327 323 322 321 318 316 312 308 305 304 305 308 309 309 310 310 308 308 309 310 312 312 312 312 313 313 316 318 313 306 303 297 286 275 263 253 249 246 243 248 254 251 242 234 235 250
329 328 325 323 320 312 305 306 310 312 311 306 300 299 301 300 301 304 305 304 306 310 313 316 322 328 331 332 329 325 319 314 311 312 317 326 330 335 335 325 320 319 317 315 316 315 310 308 308 309 311 309 308 308 307 305 304 304 306 309 310 308 309 310 311 314 316 314 311 312 310 298 281 262 249 246 241 236 238 242 237 224 221 232 253
328 329 329 328 324 317 313 313 314 314 312 308 304 304 305 304 305 305 304 306 309 312 314 316 321 326 328 332 337 340 335 321 306 301 313 326 332 336 331 320 316 315 313 313 315 314 310 309 309 309 308 306 305 304 303 302 302 302 304 307 308 306 307 309 309 312 315 314 316 321 322 314 295 267 250 247 243 236 228 220 210 202 211 230 248
329 329 332 334 331 322 318 316 314 314 313 311 310 311 310 308 308 308 308 311 313 313 315 317 319 325 332 337 342 344 339 323 311 314 323 328 331 328 321 318 317 315 314 314 314 313 310 308 307 305 302 302 302 299 297 299 301 302 305 307 305 303 304 306 308 314 318 319 322 329 332 331 323 296 262 252 246 225 196 184 188 203 222 234 251
329 329 333 336 332 325 322 318 313 314 318 317 316 315 312 311 312 311 312 314 314 314 317 318 316 323 338 345 346 342 331 320 321 326 325 323 323 322 320 318 317 317 317 317 315 313 310 306 304 303 301 300 299 297 299 303 304 302 303 304 300 299 302 304 307 314 320 322 325 330 336 341 344 338 327 357 50 101 127 140 174 236 265 275 305
331 329 329 330 329 326 323 320 317 319 319 317 316 316 313 312 314 314 313 314 315 315 317 319 318 327 339 346 347 342 335 325 320 320 319 317 317 317 316 317 319 319 319 317 314 312 310 306 303 302 299 298 299 302 305 306 305 302 301 300 299 300 302 302 305 313 319 323 326 330 335 342 349 354 2 19 37 53 58 51 338 293 313 322 323
334 330 325 326 328 327 325 322 321 320 318 317 318 320 320 318 317 315 314 315 317 318 318 318 321 330 339 345 347 346 344 337 325 317 313 311 311 311 313 316 318 317 317 317 315 313 310 307 303 299 297 299 306 310 310 308 305 301 300 299 300 300 301 303 307 313 318 321 324 327 332 337 345 354 2 8 11 12 10 354 330 319 320 318 309
333 329 327 327 329 329 328 325 323 322 323 324 324 325 324 320 316 317 318 318 318 320 320 320 326 332 338 342 346 348 349 347 339 328 316 312 313 314 314 315 316 317 318 318 317 314 310 309 307 305 305 307 311 312 310 307 305 303 301 300 299 300 303 306 310 313 316 319 322 325 329 333 338 343 350 352 349 345 339 329 324 315 306 300 297
333 331 332 333 334 334 333 331 329 328 327 326 325 326 328 325 321 323 324 322 323 326 324 324 329 335 339 343 347 348 348 348 346 340 329 321 319 317 316 316 318 320 320 320 319 318 315 312 311 310 311 313 314 314 311 309 306 303 300 298 297 299 303 307 310 312 313 315 319 323 327 329 329 329 329 329 326 322 316 311 305 296 294 296 295
337 338 338 337 335 335 335 334 333 331 330 329 329 330 331 331 330 330 329 328 328 329 328 330 336 340 342 344 347 347 344 343 341 337 332 327 323 321 321 320 320 321 322 322 322 322 319 315 313 313 314 316 317 316 313 310 307 304 301 298 296 298 301 304 306 307 308 311 315 317 318 319 320 318 315 313 311 306 298 290 285 284 288 290 289
342 343 341 336 334 333 334 335 335 334 333 335 334 333 334 334 334 334 334 334 333 330 329 333 338 341 343 344 344 345 345 342 337 332 329 327 325 323 323 322 322 323 324 324 325 324 322 318 315 315 315 317 318 316 314 314 313 311 308 303 299 298 300 303 303 303 303 304 306 307 307 308 310 307 301 298 296 291 285 282 279 279 281 286 289
346 347 342 338 334 332 332 336 337 336 337 338 338 336 335 334 334 334 335 338 340 337 336 337 338 338 340 343 343 343 344 343 339 335 330 328 327 327 325 325 326 326 326 327 327 326 324 322 319 317 315 316 316 317 319 323 322 317 313 310 306 304 304 303 301 300 300 298 298 298 298 297 296 295 294 292 290 288 286 283 281 280 283 286 288
348 348 344 341 339 336 334 338 339 337 337 339 340 339 337 335 335 336 337 340 343 342 339 341 342 340 340 342 342 341 341 341 340 338 334 332 331 330 329 329 330 330 329 330 330 328 325 323 320 318 317 318 321 326 331 332 329 323 318 314 310 307 305 302 299 298 296 294 291 289 288 287 286 287 289 289 288 287 285 283 283 285 286 288 289
351 350 347 345 344 340 338 340 339 338 339 340 338 339 340 339 338 339 340 342 344 344 343 343 344 343 342 343 341 339 339 339 338 337 336 334 333 333 332 333 334 334 333 332 332 331 328 326 323 323 324 328 334 338 337 333 329 325 321 319 317 315 311 309 306 303 298 295 292 289 287 286 287 288 289 289 287 285 282 281 283 286 286 287 289
353 353 351 350 349 346 345 346 345 344 345 344 340 338 340 341 340 343 345 346 346 346 345 346 346 346 345 343 342 341 342 342 340 338 336 335 335 335 336 338 339 338 337 336 336 336 334 334 334 335 339 343 344 341 336 332 329 326 324 324 323 322 320 317 314 309 303 299 297 293 289 287 287 287 288 287 284 281 280 281 283 286 285 285 287
355 355 355 356 355 353 352 351 350 347 348 348 345 341 341 342 341 344 348 349 348 347 346 346 346 346 345 345 346 346 347 345 342 339 338 338 338 339 341 341 342 341 341 342 344 345 344 345 345 347 348 347 343 338 334 331 328 327 326 325 323 322 320 317 314 311 306 302 300 297 293 289 287 285 285 284 281 281 282 282 282 283 283 280 278